Dati Storici

Data ora Umidita' aria (%) Temperatura aria (°C) Rad globale (W/m²) Gonioanemometro (°) Tacoanemometro (m/s) Pioggia (mm)
29-10-2012 10:50 55 % 8.402 459.269 79.304 2.058 0
29-10-2012 10:40 55.5 % 8.11 437.977 276.238 1.001 0
29-10-2012 10:30 57.1 % 8.133 411.827 336.856 2.811 0
29-10-2012 10:20 58.4 % 7.692 392.571 44.783 0.762 0
29-10-2012 10:10 61.6 % 7.643 381.234 305.333 0.451 0
29-10-2012 10:00 61.8 % 7.133 299.811 355.499 1.154 0
29-10-2012 09:50 64.1 % 6.683 252.915 352.682 2.094 0
29-10-2012 09:40 63.9 % 6.343 178.428 292.428 1.218 0
29-10-2012 09:30 63.7 % 6.599 158.593 328.553 2.177 0
29-10-2012 09:20 65.2 % 6.607 285.911 333.889 1.734 0
29-10-2012 09:10 66.4 % 6.228 273.347 333.882 2.061 0
29-10-2012 09:00 66.9 % 6.06 227.258 22.39 1.344 0
29-10-2012 08:50 68.7 % 5.668 191.917 358.025 2.301 0
29-10-2012 08:40 70.3 % 5.188 159.436 20.164 1.455 0
29-10-2012 08:30 72 % 4.826 97.101 339.569 1.716 0
29-10-2012 08:20 72.7 % 4.579 76.75 322.017 1.353 0
29-10-2012 08:10 75.2 % 4.241 61.026 3.108 1.122 0
29-10-2012 08:00 76.4 % 3.928 18.706 13.531 0.9 0
29-10-2012 07:50 76.6 % 3.869 11.797 0.532 1.926 0
29-10-2012 07:40 76.7 % 3.906 4.109 39.844 1.585 0

I dati sono presentati in modo automatico a scopo informativo. In seguito a verifica i dati possono subire modifiche o essere invalidati e non riportati negli archivi definitivi.